Commodore Goodwill — C6NU8 — position and weather

sailwx.info

Track history (hours):
 
Tides and Currents Weather Stations Pressure Air Temp Water Temp Dewpoint Dewpoint Depression Visibility Wind Speed Wind Dir Waves Ship Positions

Commodore Goodwill

Operator: Condor Marine Services

Last reported at 2018-Feb-24 04:38 UTC. Time now 2018-Feb-24 12:18 UTC.
Position N 49°23' W 002°28'.

Length 126 m; draft 4.9 m.

Type: Ship (hazmat cat C). MMSI: 309536000.

Date/timePositionNaut miles runAvg speedWind from/ knotsBaromVisibWave heightAir tempDewpointWater temp
2018-Feb-24 04:38N 49°23' W 002°28'1 7.3
2018-Feb-24 04:30N 49°24' W 002°28'4 7.2
2018-Feb-24 04:00N 49°27' W 002°32'0 0.0
2018-Feb-24 03:30N 49°27' W 002°32'0 0.0
2018-Feb-24 03:00N 49°27' W 002°32'4 7.7
2018-Feb-24 02:30N 49°26' W 002°26'612.5
2018-Feb-24 02:00N 49°30' W 002°18'2111.4
2018-Feb-24 00:08N 49°48' W 001°59'214.4
2018-Feb-24 00:00N 49°49' W 001°58'815.9
2018-Feb-23 23:31N 49°56' W 001°52'816.7
2018-Feb-23 23:00N 50°03' W 001°44'3916.8
2018-Feb-23 20:41N 50°35' W 001°10'316.0
2018-Feb-23 20:30N 50°37' W 001°07'714.1
2018-Feb-23 20:01N 50°44' W 001°04'510.1
2018-Feb-23 19:31N 50°48' W 001°07'1 1.6
2018-Feb-23 19:00N 50°49' W 001°06'0 0.0
2018-Feb-23 18:30N 50°49' W 001°06'0 0.0
2018-Feb-23 18:00N 50°49' W 001°06'0 0.0
2018-Feb-23 17:30N 50°49' W 001°06'0 0.0
2018-Feb-23 17:00N 50°49' W 001°06'0 0.0
2018-Feb-23 16:30N 50°49' W 001°06'2 4.6
2018-Feb-23 16:01N 50°46' W 001°06'714.5
2018-Feb-23 15:30N 50°39' W 001°05'3915.8
2018-Feb-23 13:01N 50°06' W 001°39'013.9
2018-Feb-23 13:00N 50°06' W 001°39'816.3
2018-Feb-23 12:29N 49°59' W 001°47'815.8
2018-Feb-23 12:01N 49°53' W 001°54'1117.4
2018-Feb-23 11:21N 49°44' W 002°03'3119.2
2018-Feb-23 09:46N 49°16' W 002°21'7 1.5
2018-Feb-23 04:45N 49°22' W 002°27'2 8.5
2018-Feb-23 04:30N 49°24' W 002°28'4 8.4
2018-Feb-23 04:00N 49°27' W 002°32'0 0.0
2018-Feb-23 03:30N 49°27' W 002°32'0 0.0
2018-Feb-23 03:00N 49°27' W 002°32'4 7.6
2018-Feb-23 02:31N 49°26' W 002°26'610.9
2018-Feb-23 01:59N 49°30' W 002°19'2113.1
2018-Feb-23 00:25N 49°47' W 002°02'513.0
2018-Feb-23 00:01N 49°51' W 001°56'815.1
2018-Feb-22 23:31N 49°57' W 001°50'815.9
2018-Feb-22 23:00N 50°04' W 001°43'816.4
2018-Feb-22 22:30N 50°11' W 001°37'2915.7
2018-Feb-22 20:38N 50°35' W 001°10'215.4
2018-Feb-22 20:30N 50°36' W 001°08'714.2
2018-Feb-22 20:00N 50°43' W 001°03'612.3
2018-Feb-22 19:30N 50°48' W 001°07'1 1.8
2018-Feb-22 19:00N 50°49' W 001°06'0 0.0
2018-Feb-22 18:30N 50°49' W 001°06'0 0.0
2018-Feb-22 18:00N 50°49' W 001°06'0 0.0
2018-Feb-22 17:30N 50°49' W 001°06'0 0.0
2018-Feb-22 17:00N 50°49' W 001°06'0 0.0
2018-Feb-22 16:30N 50°49' W 001°06'2 3.3
2018-Feb-22 16:00N 50°47' W 001°06'714.4
2018-Feb-22 15:30N 50°40' W 001°04'1015.4
2018-Feb-22 14:50N 50°32' W 001°13'3414.7
2018-Feb-22 12:33N 50°04' W 001°43'115.2
2018-Feb-22 12:30N 50°04' W 001°44'1015.6
2018-Feb-22 11:51N 49°55' W 001°52'618.6
2018-Feb-22 11:30N 49°49' W 001°57'3120.9
2018-Feb-22 10:00N 49°21' W 002°18'917.4
2018-Feb-22 09:29N 49°12' W 002°19'10 2.2
2018-Feb-22 04:46N 49°21' W 002°27'2 9.1
2018-Feb-22 04:30N 49°23' W 002°28'5 9.8
2018-Feb-22 04:00N 49°27' W 002°32'0 0.0
2018-Feb-22 03:30N 49°27' W 002°32'0 0.0
2018-Feb-22 03:00N 49°27' W 002°32'4 7.4
2018-Feb-22 02:30N 49°26' W 002°27'915.4
2018-Feb-22 01:56N 49°31' W 002°16'1515.2
2018-Feb-22 00:58N 49°44' W 002°04'714.7
2018-Feb-22 00:31N 49°49' W 001°57'714.7
2018-Feb-22 00:00N 49°55' W 001°50'715.0
2018-Feb-21 23:31N 50°01' W 001°43'815.3
2018-Feb-21 23:00N 50°07' W 001°36'3115.4
2018-Feb-21 21:01N 50°32' W 001°09'114.7
2018-Feb-21 20:55N 50°33' W 001°08'715.3
2018-Feb-21 20:26N 50°40' W 001°01'614.4
2018-Feb-21 20:00N 50°45' W 001°05'3 6.9
2018-Feb-21 19:30N 50°49' W 001°06'0 0.6
2018-Feb-21 19:00N 50°49' W 001°06'0 0.0
2018-Feb-21 18:31N 50°49' W 001°06'0 0.0
2018-Feb-21 18:00N 50°49' W 001°06'0 0.0
2018-Feb-21 17:30N 50°49' W 001°06'0 0.0
2018-Feb-21 17:00N 50°49' W 001°06'0 0.0
2018-Feb-21 16:30N 50°49' W 001°06'2 3.1
2018-Feb-21 16:00N 50°47' W 001°07'714.4
2018-Feb-21 15:31N 50°40' W 001°04'3312.9
2018-Feb-21 12:55N 50°12' W 001°32'614.2
2018-Feb-21 12:30N 50°07' W 001°36'714.5
2018-Feb-21 12:00N 50°01' W 001°42'714.8
2018-Feb-21 11:30N 49°54' W 001°47'816.2
2018-Feb-21 11:00N 49°49' W 001°57'3518.0
2018-Feb-21 09:03N 49°17' W 002°20'118.8
2018-Feb-21 09:00N 49°16' W 002°20'8 1.9
2018-Feb-21 04:33N 49°23' W 002°28'116.5
2018-Feb-21 04:30N 49°24' W 002°28'4 7.6
2018-Feb-21 03:57N 49°27' W 002°32'0 0.0
2018-Feb-21 03:30N 49°27' W 002°32'0 0.0
2018-Feb-21 03:00N 49°27' W 002°32'4 8.0
2018-Feb-21 02:30N 49°26' W 002°26'813.8
2018-Feb-21 01:54N 49°31' W 002°16'1814.8
2018-Feb-21 00:42N 49°46' W 001°60'315.2
2018-Feb-21 00:30N 49°48' W 001°57'815.4
2018-Feb-21 00:00N 49°55' W 001°51'815.4
2018-Feb-20 23:30N 50°01' W 001°44'815.2
2018-Feb-20 23:00N 50°07' W 001°37'3515.6
2018-Feb-20 20:47N 50°36' W 001°06'514.1
2018-Feb-20 20:27N 50°39' W 001°01'613.0
2018-Feb-20 20:01N 50°45' W 001°05'4 8.1
2018-Feb-20 19:30N 50°49' W 001°06'0 0.0
2018-Feb-20 19:00N 50°49' W 001°06'0 0.0
2018-Feb-20 18:31N 50°49' W 001°06'0 0.0
2018-Feb-20 18:00N 50°49' W 001°06'0 0.0
2018-Feb-20 17:30N 50°49' W 001°06'0 0.0
2018-Feb-20 17:00N 50°49' W 001°06'0 0.0
2018-Feb-20 16:30N 50°49' W 001°06'2 3.7
2018-Feb-20 16:00N 50°47' W 001°06'713.6
2018-Feb-20 15:30N 50°40' W 001°04'3314.6
2018-Feb-20 13:13N 50°13' W 001°33'414.2
2018-Feb-20 12:58N 50°09' W 001°36'613.4
2018-Feb-20 12:30N 50°04' W 001°41'713.5
2018-Feb-20 12:01N 49°59' W 001°47'714.3
2018-Feb-20 11:30N 49°53' W 001°53'1016.3
2018-Feb-20 10:52N 49°44' W 002°02'2016.1
2018-Feb-20 09:38N 49°24' W 001°58'214.6
2018-Feb-20 09:30N 49°23' W 001°57'20 4.0
2018-Feb-20 04:32N 49°23' W 002°28'018.9
2018-Feb-20 04:30N 49°24' W 002°28'4 8.5
2018-Feb-20 04:00N 49°27' W 002°32'0 0.0
2018-Feb-20 03:30N 49°27' W 002°32'0 0.0
2018-Feb-20 03:00N 49°27' W 002°32'4 8.1
2018-Feb-20 02:31N 49°26' W 002°26'813.5
2018-Feb-20 01:56N 49°31' W 002°16'1915.0
2018-Feb-20 00:39N 49°47' W 001°60'214.6
2018-Feb-20 00:30N 49°49' W 001°58'714.4
2018-Feb-20 00:00N 49°54' W 001°51'815.7
2018-Feb-19 23:30N 50°01' W 001°45'714.9
2018-Feb-19 23:00N 50°07' W 001°37'815.0
2018-Feb-19 22:29N 50°13' W 001°30'2914.1
2018-Feb-19 20:26N 50°37' W 001°04'613.1
2018-Feb-19 20:00N 50°42' W 001°01'714.1
2018-Feb-19 19:30N 50°48' W 001°07'1 2.6
2018-Feb-19 19:00N 50°49' W 001°06'0 0.0
2018-Feb-19 18:30N 50°49' W 001°06'0 0.0
2018-Feb-19 18:01N 50°49' W 001°06'0 0.0
2018-Feb-19 17:30N 50°49' W 001°06'0 0.0
2018-Feb-19 17:00N 50°49' W 001°06'0 0.0
2018-Feb-19 16:30N 50°49' W 001°06'2 4.3
2018-Feb-19 16:00N 50°47' W 001°06'714.2
2018-Feb-19 15:30N 50°40' W 001°04'1111.1
2018-Feb-19 14:30N 50°30' W 001°14'1812.4
2018-Feb-19 13:04N 50°14' W 001°27'513.5
2018-Feb-19 12:43N 50°11' W 001°32'615.0
2018-Feb-19 12:18N 50°07' W 001°39'514.7
2018-Feb-19 11:59N 50°03' W 001°43'915.4
2018-Feb-19 11:25N 49°56' W 001°51'615.9
2018-Feb-19 11:00N 49°50' W 001°56'3318.2
2018-Feb-19 09:13N 49°21' W 002°18'520.4
2018-Feb-19 09:00N 49°17' W 002°20'6 1.3
2018-Feb-19 04:26N 49°21' W 002°26'614.4
2018-Feb-19 04:01N 49°27' W 002°30'1 2.2
2018-Feb-19 03:28N 49°27' W 002°32'0 0.0
2018-Feb-19 02:59N 49°27' W 002°32'4 8.4
2018-Feb-19 02:30N 49°26' W 002°26'815.8
2018-Feb-19 02:00N 49°31' W 002°16'1813.1
2018-Feb-19 00:37N 49°46' W 002°01'2 8.8
2018-Feb-19 00:26N 49°48' W 001°59'511.3
2018-Feb-19 00:00N 49°52' W 001°55'612.5
2018-Feb-18 23:30N 49°57' W 001°49'611.7
2018-Feb-18 23:01N 50°02' W 001°45'510.5
2018-Feb-18 22:30N 50°06' W 001°40'510.2
2018-Feb-18 22:00N 50°10' W 001°34'3312.1
2018-Feb-18 19:15N 50°37' W 001°04'416.1
2018-Feb-18 19:00N 50°40' W 001°00'714.2
2018-Feb-18 18:30N 50°46' W 001°06'2 0.2
2018-Feb-18 08:01N 50°49' W 001°06'0 0.1
2018-Feb-18 08:00N 50°49' W 001°06'0 0.0
2018-Feb-18 07:31N 50°49' W 001°06'1 1.8
2018-Feb-18 07:00N 50°48' W 001°07'612.2
2018-Feb-18 06:30N 50°43' W 001°02'815.4
2018-Feb-18 06:00N 50°36' W 001°05'3716.0
2018-Feb-18 03:41N 50°06' W 001°40'314.7
2018-Feb-18 03:30N 50°04' W 001°42'714.7
2018-Feb-18 03:01N 49°58' W 001°49'814.7
2018-Feb-18 02:30N 49°52' W 001°56'37 1.7
2018-Feb-17 04:31N 49°21' W 002°29'019.0
2018-Feb-17 04:30N 49°22' W 002°29'611.8
2018-Feb-17 04:00N 49°27' W 002°32'0 0.0
2018-Feb-17 03:30N 49°27' W 002°32'0 0.0
2018-Feb-17 03:00N 49°27' W 002°32'4 7.4
2018-Feb-17 02:30N 49°26' W 002°26'814.9
2018-Feb-17 01:57N 49°31' W 002°16'2015.8
2018-Feb-17 00:40N 49°48' W 001°59'315.5
2018-Feb-17 00:31N 49°50' W 001°57'714.8
2018-Feb-17 00:00N 49°56' W 001°50'713.9
2018-Feb-16 23:30N 50°02' W 001°44'714.0
2018-Feb-16 23:00N 50°07' W 001°38'3714.8
2018-Feb-16 20:32N 50°37' W 001°04'115.5
2018-Feb-16 20:28N 50°38' W 001°03'613.8
2018-Feb-16 20:01N 50°44' W 001°04'5 9.4
2018-Feb-16 19:31N 50°49' W 001°06'0 0.2
2018-Feb-16 19:00N 50°49' W 001°06'0 0.0
2018-Feb-16 18:30N 50°49' W 001°06'0 0.0
2018-Feb-16 18:00N 50°49' W 001°06'0 0.0
2018-Feb-16 17:30N 50°49' W 001°06'0 0.0
2018-Feb-16 17:00N 50°49' W 001°06'0 0.0
2018-Feb-16 16:30N 50°49' W 001°06'2 3.4
2018-Feb-16 16:01N 50°47' W 001°06'713.7
2018-Feb-16 15:31N 50°41' W 001°01'815.3
2018-Feb-16 14:58N 50°34' W 001°07'3816.1
2018-Feb-16 12:38N 50°04' W 001°42'216.8
2018-Feb-16 12:30N 50°02' W 001°44'713.3
2018-Feb-16 12:00N 49°56' W 001°49'714.4
2018-Feb-16 11:30N 49°50' W 001°55'914.5
2018-Feb-16 10:53N 49°43' W 002°03'814.7
2018-Feb-16 10:21N 49°36' W 002°07'715.5
2018-Feb-16 09:54N 49°29' W 002°12'915.7
2018-Feb-16 09:20N 49°22' W 002°20'1115.0
2018-Feb-16 08:37N 49°11' W 002°19'13 3.1
2018-Feb-16 04:22N 49°23' W 002°28'513.8
2018-Feb-16 04:00N 49°27' W 002°32'0 0.0
2018-Feb-16 03:30N 49°27' W 002°32'0 0.0
2018-Feb-16 03:00N 49°27' W 002°32'4 7.8
2018-Feb-16 02:30N 49°26' W 002°26'1417.8
2018-Feb-16 01:44N 49°34' W 002°09'1517.0
2018-Feb-16 00:50N 49°49' W 002°01'515.4
2018-Feb-16 00:30N 49°53' W 001°56'714.8
2018-Feb-16 00:01N 49°59' W 001°51'612.4
2018-Feb-15 23:30N 50°04' W 001°45'713.3
2018-Feb-15 23:00N 50°09' W 001°38'3313.1
2018-Feb-15 20:27N 50°36' W 001°08'614.2
2018-Feb-15 20:01N 50°42' W 001°03'713.5
2018-Feb-15 19:30N 50°48' W 001°07'1 1.8
2018-Feb-15 19:00N 50°49' W 001°06'0 0.0
2018-Feb-15 18:31N 50°49' W 001°06'0 0.0
2018-Feb-15 18:01N 50°49' W 001°06'0 0.0
2018-Feb-15 17:31N 50°49' W 001°06'0 0.0
2018-Feb-15 17:01N 50°49' W 001°06'0 0.0
2018-Feb-15 16:30N 50°49' W 001°06'2 3.4
2018-Feb-15 16:01N 50°47' W 001°06'714.0
2018-Feb-15 15:31N 50°41' W 001°00'813.6
2018-Feb-15 14:56N 50°35' W 001°07'3714.5
2018-Feb-15 12:24N 50°05' W 001°42'615.5
2018-Feb-15 11:59N 49°60' W 001°46'815.8
2018-Feb-15 11:30N 49°53' W 001°52'1016.0
2018-Feb-15 10:54N 49°45' W 002°00'615.4
2018-Feb-15 10:30N 49°40' W 002°06'1717.2
2018-Feb-15 09:30N 49°24' W 002°15'917.3
2018-Feb-15 08:57N 49°15' W 002°21'9 2.1
2018-Feb-15 04:27N 49°24' W 002°28'510.7
2018-Feb-15 04:00N 49°27' W 002°32'0 0.0
2018-Feb-15 03:30N 49°27' W 002°32'0 0.0
2018-Feb-15 02:59N 49°27' W 002°32'4 8.2
2018-Feb-15 02:30N 49°26' W 002°26'1416.4
2018-Feb-15 01:39N 49°35' W 002°09'7014.8
2018-Feb-14 20:54N 50°34' W 001°10'614.5
2018-Feb-14 20:27N 50°40' W 001°05'613.8
2018-Feb-14 20:00N 50°46' W 001°05'3 6.1
2018-Feb-14 19:30N 50°49' W 001°06'0 0.0
2018-Feb-14 19:00N 50°49' W 001°06'0 0.0
2018-Feb-14 18:30N 50°49' W 001°06'0 0.0
2018-Feb-14 18:00N 50°49' W 001°06'0 0.0
2018-Feb-14 17:30N 50°49' W 001°06'0 0.0
2018-Feb-14 17:01N 50°49' W 001°06'0 0.0
2018-Feb-14 16:30N 50°49' W 001°06'2 3.8
2018-Feb-14 16:00N 50°47' W 001°06'714.3
2018-Feb-14 15:31N 50°41' W 001°01'713.9
2018-Feb-14 15:00N 50°35' W 001°08'3414.0
2018-Feb-14 12:36N 50°08' W 001°38'513.3
2018-Feb-14 12:13N 50°03' W 001°42'313.6
2018-Feb-14 12:00N 50°01' W 001°44'714.1
2018-Feb-14 11:30N 49°55' W 001°51'714.8
2018-Feb-14 11:00N 49°49' W 001°58'3817.0
2018-Feb-14 08:48N 49°15' W 002°22'  
Track history (hours):
 
Tides and Currents Weather Stations Pressure Air Temp Water Temp Dewpoint Dewpoint Depression Visibility Wind Speed Wind Dir Waves Ship Positions

Commodore Goodwill

Operator: Condor Marine Services

Last reported at 2018-Feb-24 04:38 UTC. Time now 2018-Feb-24 12:18 UTC.
Position N 49°23' W 002°28'.

Length 126 m; draft 4.9 m.

Type: Ship (hazmat cat C). MMSI: 309536000.

Date/timePositionNaut miles runAvg speedWind from/ knotsBaromVisibWave heightAir tempDewpointWater temp
2018-Feb-24 04:38N 49°23' W 002°28'1 7.3
2018-Feb-24 04:30N 49°24' W 002°28'4 7.2
2018-Feb-24 04:00N 49°27' W 002°32'0 0.0
2018-Feb-24 03:30N 49°27' W 002°32'0 0.0
2018-Feb-24 03:00N 49°27' W 002°32'4 7.7
2018-Feb-24 02:30N 49°26' W 002°26'612.5
2018-Feb-24 02:00N 49°30' W 002°18'2111.4
2018-Feb-24 00:08N 49°48' W 001°59'214.4
2018-Feb-24 00:00N 49°49' W 001°58'815.9
2018-Feb-23 23:31N 49°56' W 001°52'816.7
2018-Feb-23 23:00N 50°03' W 001°44'3916.8
2018-Feb-23 20:41N 50°35' W 001°10'316.0
2018-Feb-23 20:30N 50°37' W 001°07'714.1
2018-Feb-23 20:01N 50°44' W 001°04'510.1
2018-Feb-23 19:31N 50°48' W 001°07'1 1.6
2018-Feb-23 19:00N 50°49' W 001°06'0 0.0
2018-Feb-23 18:30N 50°49' W 001°06'0 0.0
2018-Feb-23 18:00N 50°49' W 001°06'0 0.0
2018-Feb-23 17:30N 50°49' W 001°06'0 0.0
2018-Feb-23 17:00N 50°49' W 001°06'0 0.0
2018-Feb-23 16:30N 50°49' W 001°06'2 4.6
2018-Feb-23 16:01N 50°46' W 001°06'714.5
2018-Feb-23 15:30N 50°39' W 001°05'3915.8
2018-Feb-23 13:01N 50°06' W 001°39'013.9
2018-Feb-23 13:00N 50°06' W 001°39'816.3
2018-Feb-23 12:29N 49°59' W 001°47'815.8
2018-Feb-23 12:01N 49°53' W 001°54'1117.4
2018-Feb-23 11:21N 49°44' W 002°03'3119.2
2018-Feb-23 09:46N 49°16' W 002°21'7 1.5
2018-Feb-23 04:45N 49°22' W 002°27'2 8.5
2018-Feb-23 04:30N 49°24' W 002°28'4 8.4
2018-Feb-23 04:00N 49°27' W 002°32'0 0.0
2018-Feb-23 03:30N 49°27' W 002°32'0 0.0
2018-Feb-23 03:00N 49°27' W 002°32'4 7.6
2018-Feb-23 02:31N 49°26' W 002°26'610.9
2018-Feb-23 01:59N 49°30' W 002°19'2113.1
2018-Feb-23 00:25N 49°47' W 002°02'513.0
2018-Feb-23 00:01N 49°51' W 001°56'815.1
2018-Feb-22 23:31N 49°57' W 001°50'815.9
2018-Feb-22 23:00N 50°04' W 001°43'816.4
2018-Feb-22 22:30N 50°11' W 001°37'2915.7
2018-Feb-22 20:38N 50°35' W 001°10'215.4
2018-Feb-22 20:30N 50°36' W 001°08'714.2
2018-Feb-22 20:00N 50°43' W 001°03'612.3
2018-Feb-22 19:30N 50°48' W 001°07'1 1.8
2018-Feb-22 19:00N 50°49' W 001°06'0 0.0
2018-Feb-22 18:30N 50°49' W 001°06'0 0.0
2018-Feb-22 18:00N 50°49' W 001°06'0 0.0
2018-Feb-22 17:30N 50°49' W 001°06'0 0.0
2018-Feb-22 17:00N 50°49' W 001°06'0 0.0
2018-Feb-22 16:30N 50°49' W 001°06'2 3.3
2018-Feb-22 16:00N 50°47' W 001°06'714.4
2018-Feb-22 15:30N 50°40' W 001°04'1015.4
2018-Feb-22 14:50N 50°32' W 001°13'3414.7
2018-Feb-22 12:33N 50°04' W 001°43'115.2
2018-Feb-22 12:30N 50°04' W 001°44'1015.6
2018-Feb-22 11:51N 49°55' W 001°52'618.6
2018-Feb-22 11:30N 49°49' W 001°57'3120.9
2018-Feb-22 10:00N 49°21' W 002°18'917.4
2018-Feb-22 09:29N 49°12' W 002°19'10 2.2
2018-Feb-22 04:46N 49°21' W 002°27'2 9.1
2018-Feb-22 04:30N 49°23' W 002°28'5 9.8
2018-Feb-22 04:00N 49°27' W 002°32'0 0.0
2018-Feb-22 03:30N 49°27' W 002°32'0 0.0
2018-Feb-22 03:00N 49°27' W 002°32'4 7.4
2018-Feb-22 02:30N 49°26' W 002°27'915.4
2018-Feb-22 01:56N 49°31' W 002°16'1515.2
2018-Feb-22 00:58N 49°44' W 002°04'714.7
2018-Feb-22 00:31N 49°49' W 001°57'714.7
2018-Feb-22 00:00N 49°55' W 001°50'715.0
2018-Feb-21 23:31N 50°01' W 001°43'815.3
2018-Feb-21 23:00N 50°07' W 001°36'3115.4
2018-Feb-21 21:01N 50°32' W 001°09'114.7
2018-Feb-21 20:55N 50°33' W 001°08'715.3
2018-Feb-21 20:26N 50°40' W 001°01'614.4
2018-Feb-21 20:00N 50°45' W 001°05'3 6.9
2018-Feb-21 19:30N 50°49' W 001°06'0 0.6
2018-Feb-21 19:00N 50°49' W 001°06'0 0.0
2018-Feb-21 18:31N 50°49' W 001°06'0 0.0
2018-Feb-21 18:00N 50°49' W 001°06'0 0.0
2018-Feb-21 17:30N 50°49' W 001°06'0 0.0
2018-Feb-21 17:00N 50°49' W 001°06'0 0.0
2018-Feb-21 16:30N 50°49' W 001°06'2 3.1
2018-Feb-21 16:00N 50°47' W 001°07'714.4
2018-Feb-21 15:31N 50°40' W 001°04'3312.9
2018-Feb-21 12:55N 50°12' W 001°32'614.2
2018-Feb-21 12:30N 50°07' W 001°36'714.5
2018-Feb-21 12:00N 50°01' W 001°42'714.8
2018-Feb-21 11:30N 49°54' W 001°47'816.2
2018-Feb-21 11:00N 49°49' W 001°57'3518.0
2018-Feb-21 09:03N 49°17' W 002°20'118.8
2018-Feb-21 09:00N 49°16' W 002°20'8 1.9
2018-Feb-21 04:33N 49°23' W 002°28'116.5
2018-Feb-21 04:30N 49°24' W 002°28'4 7.6
2018-Feb-21 03:57N 49°27' W 002°32'0 0.0
2018-Feb-21 03:30N 49°27' W 002°32'0 0.0
2018-Feb-21 03:00N 49°27' W 002°32'4 8.0
2018-Feb-21 02:30N 49°26' W 002°26'813.8
2018-Feb-21 01:54N 49°31' W 002°16'1814.8
2018-Feb-21 00:42N 49°46' W 001°60'315.2
2018-Feb-21 00:30N 49°48' W 001°57'815.4
2018-Feb-21 00:00N 49°55' W 001°51'815.4
2018-Feb-20 23:30N 50°01' W 001°44'815.2
2018-Feb-20 23:00N 50°07' W 001°37'3515.6
2018-Feb-20 20:47N 50°36' W 001°06'514.1
2018-Feb-20 20:27N 50°39' W 001°01'613.0
2018-Feb-20 20:01N 50°45' W 001°05'4 8.1
2018-Feb-20 19:30N 50°49' W 001°06'0 0.0
2018-Feb-20 19:00N 50°49' W 001°06'0 0.0
2018-Feb-20 18:31N 50°49' W 001°06'0 0.0
2018-Feb-20 18:00N 50°49' W 001°06'0 0.0
2018-Feb-20 17:30N 50°49' W 001°06'0 0.0
2018-Feb-20 17:00N 50°49' W 001°06'0 0.0
2018-Feb-20 16:30N 50°49' W 001°06'2 3.7
2018-Feb-20 16:00N 50°47' W 001°06'713.6
2018-Feb-20 15:30N 50°40' W 001°04'3314.6
2018-Feb-20 13:13N 50°13' W 001°33'414.2
2018-Feb-20 12:58N 50°09' W 001°36'613.4
2018-Feb-20 12:30N 50°04' W 001°41'713.5
2018-Feb-20 12:01N 49°59' W 001°47'714.3
2018-Feb-20 11:30N 49°53' W 001°53'1016.3
2018-Feb-20 10:52N 49°44' W 002°02'2016.1
2018-Feb-20 09:38N 49°24' W 001°58'214.6
2018-Feb-20 09:30N 49°23' W 001°57'20 4.0
2018-Feb-20 04:32N 49°23' W 002°28'018.9
2018-Feb-20 04:30N 49°24' W 002°28'4 8.5
2018-Feb-20 04:00N 49°27' W 002°32'0 0.0
2018-Feb-20 03:30N 49°27' W 002°32'0 0.0
2018-Feb-20 03:00N 49°27' W 002°32'4 8.1
2018-Feb-20 02:31N 49°26' W 002°26'813.5
2018-Feb-20 01:56N 49°31' W 002°16'1915.0
2018-Feb-20 00:39N 49°47' W 001°60'214.6
2018-Feb-20 00:30N 49°49' W 001°58'714.4
2018-Feb-20 00:00N 49°54' W 001°51'815.7
2018-Feb-19 23:30N 50°01' W 001°45'714.9
2018-Feb-19 23:00N 50°07' W 001°37'815.0
2018-Feb-19 22:29N 50°13' W 001°30'2914.1
2018-Feb-19 20:26N 50°37' W 001°04'613.1
2018-Feb-19 20:00N 50°42' W 001°01'714.1
2018-Feb-19 19:30N 50°48' W 001°07'1 2.6
2018-Feb-19 19:00N 50°49' W 001°06'0 0.0
2018-Feb-19 18:30N 50°49' W 001°06'0 0.0
2018-Feb-19 18:01N 50°49' W 001°06'0 0.0
2018-Feb-19 17:30N 50°49' W 001°06'0 0.0
2018-Feb-19 17:00N 50°49' W 001°06'0 0.0
2018-Feb-19 16:30N 50°49' W 001°06'2 4.3
2018-Feb-19 16:00N 50°47' W 001°06'714.2
2018-Feb-19 15:30N 50°40' W 001°04'1111.1
2018-Feb-19 14:30N 50°30' W 001°14'1812.4
2018-Feb-19 13:04N 50°14' W 001°27'513.5
2018-Feb-19 12:43N 50°11' W 001°32'615.0
2018-Feb-19 12:18N 50°07' W 001°39'514.7
2018-Feb-19 11:59N 50°03' W 001°43'915.4
2018-Feb-19 11:25N 49°56' W 001°51'615.9
2018-Feb-19 11:00N 49°50' W 001°56'3318.2
2018-Feb-19 09:13N 49°21' W 002°18'520.4
2018-Feb-19 09:00N 49°17' W 002°20'6 1.3
2018-Feb-19 04:26N 49°21' W 002°26'614.4
2018-Feb-19 04:01N 49°27' W 002°30'1 2.2
2018-Feb-19 03:28N 49°27' W 002°32'0 0.0
2018-Feb-19 02:59N 49°27' W 002°32'4 8.4
2018-Feb-19 02:30N 49°26' W 002°26'815.8
2018-Feb-19 02:00N 49°31' W 002°16'1813.1
2018-Feb-19 00:37N 49°46' W 002°01'2 8.8
2018-Feb-19 00:26N 49°48' W 001°59'511.3
2018-Feb-19 00:00N 49°52' W 001°55'612.5
2018-Feb-18 23:30N 49°57' W 001°49'611.7
2018-Feb-18 23:01N 50°02' W 001°45'510.5
2018-Feb-18 22:30N 50°06' W 001°40'510.2
2018-Feb-18 22:00N 50°10' W 001°34'3312.1
2018-Feb-18 19:15N 50°37' W 001°04'416.1
2018-Feb-18 19:00N 50°40' W 001°00'714.2
2018-Feb-18 18:30N 50°46' W 001°06'2 0.2
2018-Feb-18 08:01N 50°49' W 001°06'0 0.1
2018-Feb-18 08:00N 50°49' W 001°06'0 0.0
2018-Feb-18 07:31N 50°49' W 001°06'1 1.8
2018-Feb-18 07:00N 50°48' W 001°07'612.2
2018-Feb-18 06:30N 50°43' W 001°02'815.4
2018-Feb-18 06:00N 50°36' W 001°05'3716.0
2018-Feb-18 03:41N 50°06' W 001°40'314.7
2018-Feb-18 03:30N 50°04' W 001°42'714.7
2018-Feb-18 03:01N 49°58' W 001°49'814.7
2018-Feb-18 02:30N 49°52' W 001°56'37 1.7
2018-Feb-17 04:31N 49°21' W 002°29'019.0
2018-Feb-17 04:30N 49°22' W 002°29'611.8
2018-Feb-17 04:00N 49°27' W 002°32'0 0.0
2018-Feb-17 03:30N 49°27' W 002°32'0 0.0
2018-Feb-17 03:00N 49°27' W 002°32'4 7.4
2018-Feb-17 02:30N 49°26' W 002°26'814.9
2018-Feb-17 01:57N 49°31' W 002°16'2015.8
2018-Feb-17 00:40N 49°48' W 001°59'315.5
2018-Feb-17 00:31N 49°50' W 001°57'714.8
2018-Feb-17 00:00N 49°56' W 001°50'713.9
2018-Feb-16 23:30N 50°02' W 001°44'714.0
2018-Feb-16 23:00N 50°07' W 001°38'3714.8
2018-Feb-16 20:32N 50°37' W 001°04'115.5
2018-Feb-16 20:28N 50°38' W 001°03'613.8
2018-Feb-16 20:01N 50°44' W 001°04'5 9.4
2018-Feb-16 19:31N 50°49' W 001°06'0 0.2
2018-Feb-16 19:00N 50°49' W 001°06'0 0.0
2018-Feb-16 18:30N 50°49' W 001°06'0 0.0
2018-Feb-16 18:00N 50°49' W 001°06'0 0.0
2018-Feb-16 17:30N 50°49' W 001°06'0 0.0
2018-Feb-16 17:00N 50°49' W 001°06'0 0.0
2018-Feb-16 16:30N 50°49' W 001°06'2 3.4
2018-Feb-16 16:01N 50°47' W 001°06'713.7
2018-Feb-16 15:31N 50°41' W 001°01'815.3
2018-Feb-16 14:58N 50°34' W 001°07'3816.1
2018-Feb-16 12:38N 50°04' W 001°42'216.8
2018-Feb-16 12:30N 50°02' W 001°44'713.3
2018-Feb-16 12:00N 49°56' W 001°49'714.4
2018-Feb-16 11:30N 49°50' W 001°55'914.5
2018-Feb-16 10:53N 49°43' W 002°03'814.7
2018-Feb-16 10:21N 49°36' W 002°07'715.5
2018-Feb-16 09:54N 49°29' W 002°12'915.7
2018-Feb-16 09:20N 49°22' W 002°20'1115.0
2018-Feb-16 08:37N 49°11' W 002°19'13 3.1
2018-Feb-16 04:22N 49°23' W 002°28'513.8
2018-Feb-16 04:00N 49°27' W 002°32'0 0.0
2018-Feb-16 03:30N 49°27' W 002°32'0 0.0
2018-Feb-16 03:00N 49°27' W 002°32'4 7.8
2018-Feb-16 02:30N 49°26' W 002°26'1417.8
2018-Feb-16 01:44N 49°34' W 002°09'1517.0
2018-Feb-16 00:50N 49°49' W 002°01'515.4
2018-Feb-16 00:30N 49°53' W 001°56'714.8
2018-Feb-16 00:01N 49°59' W 001°51'612.4
2018-Feb-15 23:30N 50°04' W 001°45'713.3
2018-Feb-15 23:00N 50°09' W 001°38'3313.1
2018-Feb-15 20:27N 50°36' W 001°08'614.2
2018-Feb-15 20:01N 50°42' W 001°03'713.5
2018-Feb-15 19:30N 50°48' W 001°07'1 1.8
2018-Feb-15 19:00N 50°49' W 001°06'0 0.0
2018-Feb-15 18:31N 50°49' W 001°06'0 0.0
2018-Feb-15 18:01N 50°49' W 001°06'0 0.0
2018-Feb-15 17:31N 50°49' W 001°06'0 0.0
2018-Feb-15 17:01N 50°49' W 001°06'0 0.0
2018-Feb-15 16:30N 50°49' W 001°06'2 3.4
2018-Feb-15 16:01N 50°47' W 001°06'714.0
2018-Feb-15 15:31N 50°41' W 001°00'813.6
2018-Feb-15 14:56N 50°35' W 001°07'3714.5
2018-Feb-15 12:24N 50°05' W 001°42'615.5
2018-Feb-15 11:59N 49°60' W 001°46'815.8
2018-Feb-15 11:30N 49°53' W 001°52'1016.0
2018-Feb-15 10:54N 49°45' W 002°00'615.4
2018-Feb-15 10:30N 49°40' W 002°06'1717.2
2018-Feb-15 09:30N 49°24' W 002°15'917.3
2018-Feb-15 08:57N 49°15' W 002°21'9 2.1
2018-Feb-15 04:27N 49°24' W 002°28'510.7
2018-Feb-15 04:00N 49°27' W 002°32'0 0.0
2018-Feb-15 03:30N 49°27' W 002°32'0 0.0
2018-Feb-15 02:59N 49°27' W 002°32'4 8.2
2018-Feb-15 02:30N 49°26' W 002°26'1416.4
2018-Feb-15 01:39N 49°35' W 002°09'7014.8
2018-Feb-14 20:54N 50°34' W 001°10'614.5
2018-Feb-14 20:27N 50°40' W 001°05'613.8
2018-Feb-14 20:00N 50°46' W 001°05'3 6.1
2018-Feb-14 19:30N 50°49' W 001°06'0 0.0
2018-Feb-14 19:00N 50°49' W 001°06'0 0.0
2018-Feb-14 18:30N 50°49' W 001°06'0 0.0
2018-Feb-14 18:00N 50°49' W 001°06'0 0.0
2018-Feb-14 17:30N 50°49' W 001°06'0 0.0
2018-Feb-14 17:01N 50°49' W 001°06'0 0.0
2018-Feb-14 16:30N 50°49' W 001°06'2 3.8
2018-Feb-14 16:00N 50°47' W 001°06'714.3
2018-Feb-14 15:31N 50°41' W 001°01'713.9
2018-Feb-14 15:00N 50°35' W 001°08'3414.0
2018-Feb-14 12:36N 50°08' W 001°38'513.3
2018-Feb-14 12:13N 50°03' W 001°42'313.6
2018-Feb-14 12:00N 50°01' W 001°44'714.1
2018-Feb-14 11:30N 49°55' W 001°51'714.8
2018-Feb-14 11:00N 49°49' W 001°58'3817.0
2018-Feb-14 08:48N 49°15' W 002°22'  

Dump ship's entire track history